DW7322 Weather Reports


Display with metric or nautical units.
time (UTC)temp
F
wind
direction
speed
MPH
gust
MPH
rain 1hr
in
rain 24hr
in
rain mn
in
humidity
%
barometer
mb
20260903053045 76 244 0.0 0.0 0.00 0.00 0.00 94 1012.8
20260903051506 76 243 0.0 0.0 0.00 0.00 0.00 94 1012.8
20260903050122 76 243 0.0 0.0 0.00 0.00 0.00 94 1012.8
20260903044517 75 243 0.0 0.0 0.00 0.00 0.00 94 1012.7
20260903043046 75 243 0.0 0.0 0.00 0.00 0.00 94 1012.6
20260903041559 76 243 0.0 0.0 0.00 0.00 0.00 94 1012.5
20260903040120 76 244 0.0 0.0 0.00 0.00 0.00 93 1012.6
20260903034529 76 243 0.0 0.0 0.00 0.00 0.00 93 1012.7
20260903033051 77 243 0.0 0.0 0.00 0.00 0.00 93 1012.7
20260903031516 77 243 0.0 0.0 0.00 0.00 0.00 93 1012.5
20260903030008 77 243 0.0 0.0 0.00 0.00 0.00 92 1012.6
20260903024530 78 243 0.0 0.0 0.00 0.00 0.00 92 1012.5
20260903023051 78 243 0.0 0.0 0.00 0.00 0.00 91 1012.6
20260903021511 78 243 0.0 0.0 0.00 0.00 0.00 91 1012.2
20260903020022 79 243 0.0 0.0 0.00 0.00 0.00 91 1012.1
20260903014528 79 244 0.0 0.0 0.00 0.00 0.00 90 1012.0
20260903013051 80 243 0.0 0.0 0.00 0.00 0.00 89 1011.9
20260903011511 80 243 0.0 0.0 0.00 0.00 0.00 88 1011.8
20260903010004 81 243 0.0 0.0 0.00 0.00 0.00 86 1011.6
20260903004534 82 243 0.0 0.0 0.00 0.00 0.00 84 1011.3
20260903003056 83 243 0.0 0.0 0.00 0.00 0.00 81 1011.2
20260903001517 84 244 0.0 0.0 0.00 0.00 0.00 80 1011.2
20260903000018 85 243 0.0 0.0 0.00 0.00 0.00 79 1011.3
20260902234529 86 244 0.0 0.0 0.00 0.00 0.00 79 1011.4
20260902233104 86 243 0.0 0.0 0.00 0.00 0.00 78 1011.5
20260902231514 87 241 0.0 0.0 0.00 0.00 0.00 77 1011.7
20260902230040 88 241 0.0 0.0 0.00 0.00 0.00 76 1011.7
20260902224549 89 241 0.0 0.0 0.00 0.00 0.00 75 1011.6
20260902223116 89 300 0.0 0.0 0.00 0.00 0.00 74 1011.7
20260902221523 90 305 0.0 0.0 0.00 0.00 0.00 71 1011.7
20260902220009 91 306 0.0 0.0 0.00 0.00 0.00 69 1011.9
20260902214536 92 306 0.0 0.0 0.00 0.00 0.00 71 1011.9
20260902213056 91 305 0.0 0.0 0.00 0.00 0.00 69 1011.9
20260902213002 91 306 0.0 0.0 0.00 0.00 0.00 70 1011.9
20260902211520 91 273 0.0 0.0 0.00 0.00 0.00 66 1012.0
20260902210040 92 276 0.0 0.0 0.00 0.00 0.00 70 1012.1
20260902204541 92 283 0.0 0.0 0.00 0.00 0.00 63 1012.1
20260902203059 93 271 0.0 0.0 0.00 0.00 0.00 64 1012.1
20260902201517 94 267 0.0 0.0 0.00 0.00 0.00 65 1012.1
20260902200042 94 236 0.0 0.0 0.00 0.00 0.00 65 1012.3
20260902194537 94 191 0.0 0.0 0.00 0.00 0.00 61 1012.3
20260902193052 95 281 0.0 0.0 0.00 0.00 0.00 62 1012.5
20260902191512 94 288 0.0 0.0 0.00 0.00 0.00 65 1012.6
20260902190130 94 39 0.0 0.0 0.00 0.00 0.00 67 1012.7
20260902184532 93 262 0.0 0.0 0.00 0.00 0.00 64 1012.8
20260902183057 93 323 0.0 0.0 0.00 0.00 0.00 66 1012.8
20260902181506 93 230 0.0 0.0 0.00 0.00 0.00 68 1012.9
20260902180007 93 235 0.0 0.0 0.00 0.00 0.00 64 1013.0
20260902174525 93 241 0.0 0.0 0.00 0.00 0.00 68 1013.0
20260902173055 93 241 0.0 0.0 0.00 0.00 0.00 65 1013.0
20260902171557 92 309 0.0 0.0 0.00 0.00 0.00 66 1013.2
20260902171504 92 309 0.0 0.0 0.00 0.00 0.00 68 1013.2
20260902170113 91 207 0.0 0.0 0.00 0.00 0.00 67 1013.2
20260902164503 91 241 0.0 0.0 0.00 0.00 0.00 69 1013.3
20260902163026 90 232 0.0 0.0 0.00 0.00 0.00 69 1013.4
20260902161538 90 232 0.0 0.0 0.00 0.00 0.00 72 1013.5
20260902160052 88 233 0.0 0.0 0.00 0.00 0.00 74 1013.5
20260902154540 87 216 0.0 0.0 0.00 0.00 0.00 75 1013.6
20260902153058 85 139 0.0 0.0 0.00 0.00 0.00 78 1013.7
20260902151504 83 253 0.0 0.0 0.00 0.00 0.00 82 1013.9
20260902150002 82 139 0.0 0.0 0.00 0.00 0.00 83 1013.9
20260902144526 81 264 0.0 0.0 0.00 0.00 0.00 84 1014.0
20260902143038 80 280 0.0 0.0 0.00 0.00 0.00 84 1014.1
20260902141601 79 280 0.0 0.0 0.00 0.00 0.00 89 1013.9
20260902140113 78 247 0.0 0.0 0.00 0.00 0.00 91 1014.0
20260902134605 77 246 0.0 0.0 0.00 0.00 0.00 91 1014.1
20260902133012 76 246 0.0 0.0 0.00 0.00 0.00 93 1013.9
20260902131528 74 246 0.0 0.0 0.00 0.00 0.00 94 1013.9
20260902130026 72 246 0.0 0.0 0.00 0.00 0.00 94 1014.1
20260902124537 71 247 0.0 0.0 0.00 0.00 0.00 95 1014.1
20260902123100 71 247 0.0 0.0 0.00 0.00 0.00 95 1014.0
20260902121520 71 247 0.0 0.0 0.00 0.00 0.00 95 1014.0
20260902120049 71 246 0.0 0.0 0.00 0.00 0.00 95 1013.9
20260902114542 70 246 0.0 0.0 0.00 0.00 0.00 95 1013.6
20260902113053 70 247 0.0 0.0 0.00 0.00 0.00 95 1013.7
20260902111512 70 247 0.0 0.0 0.00 0.00 0.00 95 1013.7
20260902110129 71 246 0.0 0.0 0.00 0.00 0.00 95 1013.8
20260902104546 71 248 0.0 0.0 0.00 0.00 0.00 95 1014.0
20260902103101 71 247 0.0 0.0 0.00 0.00 0.00 95 1013.9
20260902101513 71 247 0.0 0.0 0.00 0.00 0.00 95 1014.0
20260902100042 71 246 0.0 0.0 0.00 0.00 0.00 95 1013.9
20260902094530 71 247 0.0 0.0 0.00 0.00 0.00 95 1013.9
20260902093047 71 247 0.0 0.0 0.00 0.00 0.00 95 1013.9
20260902091513 71 247 0.0 0.0 0.00 0.00 0.00 95 1013.7
20260902090018 71 247 0.0 0.0 0.00 0.00 0.00 95 1013.6
20260902084536 71 247 0.0 0.0 0.00 0.00 0.00 95 1013.4
20260902083059 72 246 0.0 0.0 0.00 0.00 0.00 95 1013.5
20260902081516 72 246 0.0 0.0 0.00 0.00 0.00 95 1013.5
20260902080040 72 247 0.0 0.0 0.00 0.00 0.00 95 1013.4
20260902074534 72 246 0.0 0.0 0.00 0.00 0.00 95 1013.5
20260902073004 72 246 0.0 0.0 0.00 0.00 0.00 95 1013.4
20260902071527 73 246 0.0 0.0 0.00 0.00 0.00 95 1013.3
20260902070048 73 247 0.0 0.0 0.00 0.00 0.00 95 1013.4
20260902064549 72 246 0.0 0.0 0.00 0.00 0.00 95 1013.4
20260902063032 73 247 0.0 0.0 0.00 0.00 0.00 95 1013.7
20260902061556 73 247 0.0 0.0 0.00 0.00 0.00 95 1013.5
20260902060106 73 247 0.0 0.0 0.00 0.00 0.00 95 1013.6
20260902054555 73 246 0.0 0.0 0.00 0.00 0.00 95 1013.4